When you browse on this site, cookies collect data to enhance your experience and personalize the content and advertising you see.
Visit our Privacy Policy to learn more. By continuing to use the site, you agree to this use of cookies and data.
  • Em Portugal
  • Lista de países
  • Para 7 dias
  • Temperatura da água
  • Mapas de satélite
  • Mapa do tempo
  • Widgets de tempo
  • user-avatar
    Iniciar Sessão

    Previsão horária em Berezova

    Hoje, 20 Julho, Sábado

    Tempo Temperatura Precipitação Vento Pressão Humidade
    00:00 +19°C° 0 mm 2 m/s 744 mmHg 93%
    01:00 +19°C° 0 mm 2 m/s 743 mmHg 94%
    02:00 +19°C° 0 mm 2 m/s 744 mmHg 95%
    03:00 +19°C° 0 mm 2 m/s 744 mmHg 96%
    04:00 +18°C° 0 mm 2 m/s 744 mmHg 97%
    05:00 +19°C° 0.1 mm 3 m/s 744 mmHg 95%
    06:00 +20°C° 0.1 mm 3 m/s 744 mmHg 94%
    07:00 +20°C° 0.1 mm 3 m/s 745 mmHg 93%
    08:00 +21°C° 0 mm 3 m/s 745 mmHg 88%
    09:00 +22°C° 0 mm 3 m/s 745 mmHg 83%
    10:00 +24°C° 0 mm 3 m/s 745 mmHg 78%
    11:00 +25°C° 0 mm 3 m/s 745 mmHg 74%
    12:00 +26°C° 0 mm 3 m/s 745 mmHg 70%
    13:00 +27°C° 0 mm 3 m/s 746 mmHg 66%
    14:00 +27°C° 0 mm 3 m/s 746 mmHg 65%
    15:00 +27°C° 0 mm 3 m/s 745 mmHg 64%
    16:00 +28°C° 0 mm 3 m/s 745 mmHg 63%
    17:00 +27°C° 0 mm 3 m/s 745 mmHg 69%
    18:00 +26°C° 0 mm 3 m/s 745 mmHg 74%
    19:00 +25°C° 0 mm 2 m/s 745 mmHg 79%
    20:00 +23°C° 0 mm 2 m/s 745 mmHg 82%
    21:00 +21°C° 0 mm 2 m/s 746 mmHg 85%
    22:00 +19°C° 0 mm 2 m/s 746 mmHg 88%
    23:00 +18°C° 0 mm 2 m/s 746 mmHg 89%

    Amanhã, 21 Julho, Domingo

    Tempo Temperatura Precipitação Vento Pressão Humidade
    00:00 +18°C° 0 mm 2 m/s 745 mmHg 90%
    01:00 +17°C° 0 mm 2 m/s 745 mmHg 91%
    02:00 +17°C° 0 mm 2 m/s 745 mmHg 92%
    03:00 +16°C° 0 mm 2 m/s 745 mmHg 93%
    04:00 +16°C° 0 mm 2 m/s 745 mmHg 94%
    05:00 +17°C° 0 mm 2 m/s 745 mmHg 91%
    06:00 +18°C° 0 mm 2 m/s 745 mmHg 89%
    07:00 +19°C° 0 mm 2 m/s 745 mmHg 86%
    08:00 +20°C° 0.1 mm 3 m/s 745 mmHg 81%
    09:00 +21°C° 0.1 mm 3 m/s 745 mmHg 77%
    10:00 +24°C° 0.1 mm 3 m/s 745 mmHg 72%
    11:00 +24°C° 0 mm 3 m/s 745 mmHg 68%
    12:00 +25°C° 0 mm 3 m/s 745 mmHg 65%
    13:00 +26°C° 0 mm 4 m/s 744 mmHg 62%
    14:00 +25°C° 0.4 mm 4 m/s 744 mmHg 65%
    15:00 +25°C° 0.4 mm 4 m/s 744 mmHg 69%
    16:00 +23°C° 0.4 mm 4 m/s 744 mmHg 72%
    17:00 +23°C° 0.4 mm 4 m/s 744 mmHg 76%
    18:00 +22°C° 0.4 mm 3 m/s 744 mmHg 79%
    19:00 +21°C° 0.4 mm 3 m/s 744 mmHg 82%
    20:00 +20°C° 0 mm 3 m/s 744 mmHg 86%
    21:00 +18°C° 0 mm 3 m/s 744 mmHg 89%
    22:00 +17°C° 0 mm 3 m/s 744 mmHg 92%
    23:00 +16°C° 0 mm 3 m/s 744 mmHg 92%

    Depois de amanhã, 22 Julho, Segunda-feira

    Tempo Temperatura Precipitação Vento Pressão Humidade
    00:00 +16°C° 0 mm 2 m/s 744 mmHg 93%
    01:00 +15°C° 0 mm 2 m/s 744 mmHg 94%
    02:00 +15°C° 0 mm 2 m/s 744 mmHg 94%
    03:00 +15°C° 0 mm 2 m/s 744 mmHg 95%
    04:00 +14°C° 0 mm 2 m/s 744 mmHg 96%
    05:00 +15°C° 0 mm 2 m/s 744 mmHg 94%
    06:00 +17°C° 0 mm 2 m/s 744 mmHg 92%
    07:00 +18°C° 0 mm 2 m/s 744 mmHg 91%
    08:00 +19°C° 0.1 mm 3 m/s 743 mmHg 86%
    09:00 +20°C° 0.1 mm 3 m/s 743 mmHg 81%
    10:00 +21°C° 0.1 mm 3 m/s 743 mmHg 77%
    11:00 +22°C° 0.4 mm 3 m/s 743 mmHg 74%
    12:00 +22°C° 0.4 mm 3 m/s 742 mmHg 72%
    13:00 +24°C° 0.4 mm 3 m/s 742 mmHg 70%
    14:00 +24°C° 0.3 mm 3 m/s 742 mmHg 70%
    15:00 +24°C° 0.3 mm 3 m/s 742 mmHg 71%
    16:00 +24°C° 0.3 mm 3 m/s 742 mmHg 72%
    17:00 +22°C° 0.5 mm 3 m/s 742 mmHg 76%
    18:00 +21°C° 0.5 mm 3 m/s 742 mmHg 81%
    19:00 +20°C° 0.5 mm 3 m/s 742 mmHg 86%
    20:00 +19°C° 0 mm 3 m/s 742 mmHg 89%
    21:00 +18°C° 0 mm 3 m/s 742 mmHg 92%
    22:00 +16°C° 0 mm 3 m/s 742 mmHg 94%
    23:00 +16°C° 0 mm 3 m/s 742 mmHg 95%

    23 Julho, Terça-feira

    Tempo Temperatura Precipitação Vento Pressão Humidade
    00:00 +14°C° 0 mm 3 m/s 742 mmHg 96%
    01:00 +14°C° 0 mm 3 m/s 742 mmHg 96%
    02:00 +14°C° 0 mm 2 m/s 742 mmHg 96%
    03:00 +14°C° 0 mm 2 m/s 743 mmHg 96%
    04:00 +13°C° 0 mm 2 m/s 743 mmHg 96%
    05:00 +14°C° 0 mm 2 m/s 743 mmHg 94%
    06:00 +14°C° 0 mm 3 m/s 743 mmHg 93%
    07:00 +16°C° 0 mm 3 m/s 743 mmHg 91%
    08:00 +18°C° 0 mm 3 m/s 743 mmHg 86%
    09:00 +19°C° 0 mm 3 m/s 743 mmHg 81%
    10:00 +20°C° 0 mm 3 m/s 743 mmHg 76%
    11:00 +21°C° 0.1 mm 3 m/s 743 mmHg 74%
    12:00 +21°C° 0.1 mm 3 m/s 744 mmHg 73%
    13:00 +23°C° 0.1 mm 2 m/s 744 mmHg 71%
    14:00 +22°C° 0.4 mm 3 m/s 744 mmHg 73%
    15:00 +21°C° 0.4 mm 3 m/s 744 mmHg 76%
    16:00 +21°C° 0.4 mm 3 m/s 744 mmHg 78%
    17:00 +21°C° 0.4 mm 3 m/s 744 mmHg 81%
    18:00 +20°C° 0.4 mm 2 m/s 744 mmHg 85%
    19:00 +20°C° 0.4 mm 2 m/s 744 mmHg 88%
    20:00 +19°C° 0.1 mm 2 m/s 744 mmHg 90%
    21:00 +18°C° 0.1 mm 2 m/s 744 mmHg 91%
    22:00 +17°C° 0.1 mm 2 m/s 744 mmHg 93%
    23:00 +17°C° 0 mm 2 m/s 744 mmHg 94%

    24 Julho, Quarta-feira

    Tempo Temperatura Precipitação Vento Pressão Humidade
    00:00 +16°C° 0 mm 2 m/s 745 mmHg 95%
    01:00 +15°C° 0 mm 2 m/s 745 mmHg 96%
    02:00 +15°C° 0 mm 1 m/s 745 mmHg 96%
    03:00 +15°C° 0 mm 1 m/s 745 mmHg 96%
    04:00 +15°C° 0 mm 1 m/s 745 mmHg 96%
    05:00 +16°C° 0 mm 1 m/s 746 mmHg 94%
    06:00 +18°C° 0 mm 1 m/s 746 mmHg 92%
    07:00 +18°C° 0 mm 2 m/s 746 mmHg 90%
    08:00 +19°C° 0 mm 2 m/s 747 mmHg 84%
    09:00 +21°C° 0 mm 2 m/s 747 mmHg 78%
    10:00 +24°C° 0 mm 2 m/s 747 mmHg 72%
    11:00 +25°C° 0.1 mm 2 m/s 747 mmHg 67%
    12:00 +26°C° 0.1 mm 1 m/s 747 mmHg 62%
    13:00 +27°C° 0.1 mm 1 m/s 748 mmHg 57%
    14:00 +27°C° 0.1 mm 1 m/s 748 mmHg 56%
    15:00 +27°C° 0.1 mm 1 m/s 748 mmHg 56%
    16:00 +27°C° 0.1 mm 1 m/s 748 mmHg 55%
    17:00 +26°C° 0 mm 1 m/s 748 mmHg 60%
    18:00 +26°C° 0 mm 1 m/s 748 mmHg 64%
    19:00 +25°C° 0 mm 1 m/s 748 mmHg 69%
    20:00 +23°C° 0 mm 1 m/s 748 mmHg 72%
    21:00 +21°C° 0 mm 1 m/s 749 mmHg 76%
    22:00 +20°C° 0 mm 1 m/s 749 mmHg 79%
    23:00 +19°C° 0 mm 1 m/s 749 mmHg 80%

    25 Julho, Quinta-feira

    Tempo Temperatura Precipitação Vento Pressão Humidade
    00:00 +18°C° 0 mm 1 m/s 749 mmHg 81%
    01:00 +18°C° 0 mm 1 m/s 749 mmHg 82%
    02:00 +18°C° 0 mm 1 m/s 750 mmHg 82%
    03:00 +16°C° 0 mm 1 m/s 750 mmHg 83%
    04:00 +16°C° 0 mm 1 m/s 750 mmHg 83%
    05:00 +18°C° 0 mm 1 m/s 750 mmHg 81%
    06:00 +19°C° 0 mm 1 m/s 750 mmHg 78%
    07:00 +21°C° 0 mm 1 m/s 750 mmHg 76%
    08:00 +22°C° 0 mm 1 m/s 750 mmHg 72%
    09:00 +24°C° 0 mm 1 m/s 750 mmHg 67%
    10:00 +25°C° 0 mm 1 m/s 750 mmHg 63%
    11:00 +26°C° 0 mm 1 m/s 750 mmHg 60%
    12:00 +27°C° 0 mm 1 m/s 750 mmHg 58%
    13:00 +27°C° 0 mm 1 m/s 750 mmHg 55%
    14:00 +28°C° 0 mm 1 m/s 750 mmHg 55%
    15:00 +28°C° 0 mm 1 m/s 750 mmHg 54%
    16:00 +26°C° 0 mm 0 m/s 750 mmHg 54%
    17:00 +25°C° 0 mm 0 m/s 750 mmHg 59%
    18:00 +24°C° 0 mm 0 m/s 750 mmHg 64%
    19:00 +24°C° 0 mm 0 m/s 749 mmHg 69%
    20:00 +22°C° 0 mm 0 m/s 749 mmHg 72%
    21:00 +20°C° 0 mm 0 m/s 749 mmHg 75%
    22:00 +19°C° 0 mm 0 m/s 749 mmHg 78%
    23:00 +18°C° 0 mm 0 m/s 749 mmHg 80%
    Mostrar mais